Other Public Products
Issued by NWS Charleston, SC

Home | Current Version | Previous Version | Text Only | Print | Product List | Glossary On
Versions: 1 2 3 4 5 6 7 8 9 10 11 12 13 14 15 16 17 18 19 20 21 22 23 24 25 26 27 28 29 30 31 32 33 34 35 36 37 38 39 40 41 42 43 44 45 46 47 48 49 50
000
FPUS82 KCHS 212312
OPUCHS

TEST...KCHS/KSAV Gateway Observations...TEST
National Weather Service Charleston SC
700 PM EDT MON MAY 21 2018

NOTE: "fair" indicates few or no clouds below 12,000 feet with no
significant weather and/or obstructions to visibility.

SCZ050-WAZ558-NCZ071-TXZ119-213-PAZ071-DCZ001-FLZ074-172-MI076-
NYZ176-178-MAZ016-IL014-TNZ027-NJZ106-GAZ044-MD014-220000-

...Gateway Observations for Charleston International...

CITY           SKY/WX    TMP DP  RH WIND       PRES   REMARKS
Chas Airport   PTSUNNY   80  69  69 S12       30.12R
Seattle        MOSUNNY   68  49  50 W8        30.04F
Charlotte      PTSUNNY   79  66  64 NW5       30.10S
Dallas DFW     CLOUDY    85  64  49 S3        29.93F
Dallas Love    PTSUNNY   86  66  51 SE8       29.94S
Philladelphia  CLOUDY    76  52  43 S5        30.13S
Wash National  PTSUNNY   76  61  59 SE9       30.13S
Baltimore      PTSUNNY   76  59  55 SE8       30.13R
Miami          CLOUDY    79  72  79 E13       30.01F
Detroit        HVY RAIN  55  48  77 NE7       30.10F
Newark         PTSUNNY   73  50  44 S10       30.13S
Laguardia      FAIR      71  48  43 S10       30.13S
J F K          PTSUNNY   64  52  64 S13       30.16S
Boston Logan   PTSUNNY   77  38  24 W12       30.07R
Ft. Lauderdale CLOUDY    80  74  81 E13       30.02R
Chicago O`Hare CLOUDY    61  59  93 N5        29.98F FOG
Chicago Midway LGT RAIN  64  62  93 VRB5      29.98S FOG
Houston Bush   TSTM      76  70  82 SW8       29.97R
Houston Hobby  CLOUDY    74  73  97 W13       29.97R THUNDER
Nashville      FAIR      85  62  46 S13       30.02S
Atlanta        PTSUNNY   80  64  58 E8        30.08F

$$

GAZ044-118-TXZ119-213-NCZ071-DCZ001-MDZ014-506-PAZ021-071-NJZ106-
NYZ176-178-MAZ106-OHZ011-021-055-MIZ076-KYZ091-ILZ014-INZ047-
MNZ060-ONZ431-220000-

...Gateway Observations for Savannah International...

CITY           SKY/WX    TMP DP  RH WIND       PRES   REMARKS
Savannah Arpt  PTSUNNY   81  68  64 S10       30.10S
Atlanta        PTSUNNY   80  64  58 E8        30.08F
Charlotte      PTSUNNY   79  66  64 NW5       30.10S
Dallas DFW     CLOUDY    85  64  49 S3        29.93F
Houston Bush   TSTM      76  70  82 SW8       29.97R
Wash National  PTSUNNY   76  61  59 SE9       30.13S
Wash Dulles    PTSUNNY   76  65  68 S8        30.12S
Baltimore      PTSUNNY   76  59  55 SE8       30.13R
Philadelphia   CLOUDY    76  52  43 S5        30.13S
Newark         PTSUNNY   73  50  44 S10       30.13S
Laguardia      FAIR      71  48  43 S10       30.13S
J F K          PTSUNNY   64  52  64 S13       30.16S
Boston         PTSUNNY   77  38  24 W12       30.07R
Pittsburg      PTSUNNY   79  58  48 CALM      30.07F
Akron          PTSUNNY   78  59  51 SE7       30.06F
Cleveland      CLOUDY    64  52  64 NE10      30.08F
Cincinnati     CLOUDY    82  66  58 SW5       30.01S
Columbus       FAIR      79  67  66 MISG      30.01F
Detroit        HVY RAIN  55  48  77 NE7       30.10F
Chicago O`Hare CLOUDY    61  59  93 N5        29.98F FOG
Minneapolis    CLOUDY    64  52  64 SE10      30.00S
Indianapolis   CLOUDY    76  68  76 S7        30.02R
Toronto Canada CLOUDY    68  36  30 VRB2      30.13F

$$




USA.gov is the U.S. government's official web portal to all federal, state and local government web resources and services.